Simultaneous Nadir Overpasses (SNOs) Predictions

Prediction of SNOs between AQUA and GOES-15 Satellite Orbit:

Table of predicted SNOs for the next 14.0 days since TLE Epoch: 7/1/2013
Index Date Time (AQUA) AQUA Lat,Lon GOES-15 Lat,Lon Distance(km) Time Diff (sec)
1 07/02/2013 22:20:41 0.95,-131.36 0.14,-135.12 428.03 80
2 07/03/2013 10:41:11 0.12,-136.33 -0.16,-135.11 138.71 80
3 07/05/2013 10:25:45 -0.72,-132.59 -0.16,-135.17 294.08 80
4 07/05/2013 22:46:14 -0.31,-137.56 0.18,-135.21 266.90 80
5 07/07/2013 22:30:10 0.52,-133.66 0.18,-135.26 182.49 80
6 07/08/2013 10:50:20 0.53,-138.55 -0.19,-135.26 375.31 80
7 07/10/2013 10:33:40 -0.35,-134.50 -0.19,-135.30 90.72 80
8 07/10/2013 22:53:49 -0.63,-139.40 0.20,-135.34 461.96 80
9 07/12/2013 22:36:30 0.25,-135.20 0.20,-135.38 21.08 80




NCC Satellite Simultaneous Nadir Overpasses (SNOs) Prediction Service
